Starlink 32803

operational
NORAD ID: 63024 Int'l Des: 2025-032 Owner: SPXS Country: US Constellation: starlink
LEOCIRCULAR

Starlink 32803について

説明を読み込み中...

リアルタイム位置

3D地球を読み込み中...

次回通過

高度履歴

Altitude vs Time

uPlot chart will show altitude changes over time

軌道要素

1 63024U 25032V 25308.74361485 .00023014 00000-0 84264-3 0 9990
2 63024 43.0015 321.4573 0004931 259.7384 100.2912 15.27594291 41353
Epoch: Nov 4, 2025 • Age: 16 hours

現在のステータス

高度 489.2 km
速度 7.62 km/s
衛星直下点 42.63°N, 135.74°W
打ち上げ日 Feb 15, 2025
運用期間 0.7 years
タイプ internet

技術仕様

分類 Payload
質量 730.00 kg
乾燥質量 700.00 kg
総質量 730.00 kg
長さ 0.30 m
直径 4.10 m
スパン 29.00 m
形状 Box + pan
製造者 SPXS
バスタイプ Starlink V2M
フェーズステータス In Orbit
所有者/国 SPXS/US

大規模コンステレーション

Loading constellations...